Time,TemperatureF,DewpointF,PressureIn,WindDirection,WindDirectionDegrees,WindSpeedMPH,WindSpeedGustMPH,Humidity,HourlyPrecipIn,Conditions,Clouds,dailyrainin,SoftwareType,DateUTC
2013-06-06 00:04:00,62.1,33.4,28.32,NW,313,6.3,6.3,34,0.00,,---,0.00,VWS V14.01,2013-06-06 07:04:00,
2013-06-06 00:09:00,61.7,33.8,28.35,NW,313,6.3,6.3,35,0.00,,---,0.00,VWS V14.01,2013-06-06 07:09:00,
2013-06-06 00:15:00,61.5,34.3,28.35,NW,313,6.3,6.3,36,0.00,,---,0.00,VWS V14.01,2013-06-06 07:15:00,
2013-06-06 00:20:00,61.3,34.2,28.35,NW,313,6.3,6.3,36,0.00,,---,0.00,VWS V14.01,2013-06-06 07:20:00,
2013-06-06 00:25:00,61.3,34.2,28.35,NW,313,6.3,6.3,36,0.00,,---,0.00,VWS V14.01,2013-06-06 07:25:00,
2013-06-06 00:30:00,61.3,34.2,28.35,NW,313,6.3,6.3,36,0.00,,---,0.00,VWS V14.01,2013-06-06 07:30:00,
2013-06-06 00:36:00,61.3,34.2,28.35,NW,313,6.3,6.3,36,0.00,,---,0.00,VWS V14.01,2013-06-06 07:36:00,
2013-06-06 00:41:00,61.3,34.2,28.32,NW,313,6.3,6.3,36,0.00,,---,0.00,VWS V14.01,2013-06-06 07:41:00,
2013-06-06 00:47:00,61.3,34.2,28.32,NW,313,6.3,6.3,36,0.00,,---,0.00,VWS V14.01,2013-06-06 07:47:00,
2013-06-06 00:53:00,61.3,34.2,28.32,NW,313,6.3,6.3,36,0.00,,---,0.00,VWS V14.01,2013-06-06 07:53:00,
2013-06-06 00:58:00,61.3,34.2,28.35,NW,313,6.3,6.3,36,0.00,,---,0.00,VWS V14.01,2013-06-06 07:58:00,
2013-06-06 01:03:00,61.3,34.2,28.35,NW,313,6.3,6.3,36,0.00,,---,0.00,VWS V14.01,2013-06-06 08:03:00,
2013-06-06 01:09:00,61.3,34.2,28.35,NW,313,6.3,6.3,36,0.00,,---,0.00,VWS V14.01,2013-06-06 08:09:00,
2013-06-06 01:14:00,61.2,34.0,28.35,NW,313,6.3,6.3,36,0.00,,---,0.00,VWS V14.01,2013-06-06 08:14:00,
2013-06-06 01:19:00,61.0,33.2,28.35,NW,313,6.3,6.3,35,0.00,,---,0.00,VWS V14.01,2013-06-06 08:19:00,
2013-06-06 01:24:00,60.8,33.7,28.32,NW,313,6.3,6.3,36,0.00,,---,0.00,VWS V14.01,2013-06-06 08:24:00,
2013-06-06 01:30:00,60.6,33.5,28.32,NW,313,6.3,6.3,36,0.00,,---,0.00,VWS V14.01,2013-06-06 08:30:00,
2013-06-06 01:35:00,60.6,34.2,28.32,NW,313,6.3,6.3,37,0.00,,---,0.00,VWS V14.01,2013-06-06 08:35:00,
2013-06-06 01:40:00,60.4,34.1,28.32,NW,313,6.3,6.3,37,0.00,,---,0.00,VWS V14.01,2013-06-06 08:40:00,
2013-06-06 01:45:00,60.3,33.9,28.32,NW,313,6.3,6.3,37,0.00,,---,0.00,VWS V14.01,2013-06-06 08:45:00,
2013-06-06 01:50:00,60.1,33.8,28.32,NW,313,6.3,6.3,37,0.00,,---,0.00,VWS V14.01,2013-06-06 08:50:00,
2013-06-06 01:55:00,60.1,33.8,28.32,NW,313,6.3,6.3,37,0.00,,---,0.00,VWS V14.01,2013-06-06 08:55:00,
2013-06-06 02:00:00,60.1,33.8,28.32,NW,313,6.3,6.3,37,0.00,,---,0.00,VWS V14.01,2013-06-06 09:00:00,
2013-06-06 02:06:00,59.9,33.6,28.32,NW,313,6.3,6.3,37,0.00,,---,0.00,VWS V14.01,2013-06-06 09:06:00,
2013-06-06 02:11:00,59.9,33.6,28.32,NW,313,6.3,6.3,37,0.00,,---,0.00,VWS V14.01,2013-06-06 09:11:00,
2013-06-06 02:16:00,60.1,35.1,28.32,NW,313,6.3,6.3,39,0.00,,---,0.00,VWS V14.01,2013-06-06 09:16:00,
2013-06-06 02:22:00,60.4,34.7,28.32,NW,313,6.3,6.3,38,0.00,,---,0.00,VWS V14.01,2013-06-06 09:22:00,
2013-06-06 02:27:00,60.4,34.7,28.32,NW,313,6.3,6.3,38,0.00,,---,0.00,VWS V14.01,2013-06-06 09:27:00,
2013-06-06 02:32:00,60.4,34.1,28.32,NW,313,6.3,6.3,37,0.00,,---,0.00,VWS V14.01,2013-06-06 09:32:00,
2013-06-06 02:38:00,60.4,33.4,28.32,NW,313,6.3,6.3,36,0.00,,---,0.00,VWS V14.01,2013-06-06 09:38:00,
2013-06-06 02:43:00,59.9,32.9,28.32,NW,313,6.3,6.3,36,0.00,,---,0.00,VWS V14.01,2013-06-06 09:43:00,
2013-06-06 02:48:00,59.5,32.6,28.32,NW,313,6.3,6.3,36,0.00,,---,0.00,VWS V14.01,2013-06-06 09:48:00,
2013-06-06 02:54:00,58.8,32.6,28.35,NW,313,6.3,6.3,37,0.00,,---,0.00,VWS V14.01,2013-06-06 09:54:00,
2013-06-06 02:59:00,58.1,32.7,28.35,NW,313,6.3,6.3,38,0.00,,---,0.00,VWS V14.01,2013-06-06 09:59:00,
2013-06-06 03:04:00,57.6,33.4,28.35,NW,313,6.3,6.3,40,0.00,,---,0.00,VWS V14.01,2013-06-06 10:04:00,
2013-06-06 03:10:00,57.2,34.3,28.32,NW,313,6.3,6.3,42,0.00,,---,0.00,VWS V14.01,2013-06-06 10:10:00,
2013-06-06 03:15:00,57.2,35.5,28.32,NW,313,6.3,6.3,44,0.00,,---,0.00,VWS V14.01,2013-06-06 10:15:00,
2013-06-06 03:20:00,57.4,36.2,28.32,NW,313,6.3,6.3,45,0.00,,---,0.00,VWS V14.01,2013-06-06 10:20:00,
2013-06-06 03:25:00,57.6,36.4,28.32,NW,313,6.3,6.3,45,0.00,,---,0.00,VWS V14.01,2013-06-06 10:25:00,
2013-06-06 03:30:00,57.9,36.7,28.32,NW,313,6.3,6.3,45,0.00,,---,0.00,VWS V14.01,2013-06-06 10:30:00,
2013-06-06 03:35:00,58.1,36.9,28.32,NW,313,6.3,6.3,45,0.00,,---,0.00,VWS V14.01,2013-06-06 10:35:00,
2013-06-06 03:41:00,58.3,37.6,28.32,NW,313,6.3,6.3,46,0.00,,---,0.00,VWS V14.01,2013-06-06 10:41:00,
2013-06-06 03:46:00,58.5,37.8,28.32,NW,313,6.3,6.3,46,0.00,,---,0.00,VWS V14.01,2013-06-06 10:46:00,
2013-06-06 03:51:00,58.5,37.2,28.32,NW,313,6.3,6.3,45,0.00,,---,0.00,VWS V14.01,2013-06-06 10:51:00,
2013-06-06 03:56:00,58.1,36.3,28.32,NW,313,6.3,6.3,44,0.00,,---,0.00,VWS V14.01,2013-06-06 10:56:00,
2013-06-06 04:02:00,57.4,36.2,28.32,NW,313,6.3,6.3,45,0.00,,---,0.00,VWS V14.01,2013-06-06 11:02:00,
2013-06-06 04:07:00,57.2,36.1,28.32,NW,313,6.3,6.3,45,0.00,,---,0.00,VWS V14.01,2013-06-06 11:07:00,
2013-06-06 04:12:00,57.4,37.3,28.35,NW,313,6.3,6.3,47,0.00,,---,0.00,VWS V14.01,2013-06-06 11:12:00,
2013-06-06 04:18:00,57.6,37.5,28.35,NW,313,6.3,6.3,47,0.00,,---,0.00,VWS V14.01,2013-06-06 11:18:00,
2013-06-06 04:23:00,57.6,37.5,28.35,NW,313,6.3,6.3,47,0.00,,---,0.00,VWS V14.01,2013-06-06 11:23:00,
2013-06-06 04:28:00,57.4,37.3,28.35,NW,313,6.3,6.3,47,0.00,,---,0.00,VWS V14.01,2013-06-06 11:28:00,
2013-06-06 04:34:00,57.2,37.2,28.35,NW,313,6.3,6.3,47,0.00,,---,0.00,VWS V14.01,2013-06-06 11:34:00,
2013-06-06 04:39:00,57.0,37.0,28.35,NW,313,6.3,6.3,47,0.00,,---,0.00,VWS V14.01,2013-06-06 11:39:00,
2013-06-06 04:44:00,57.0,37.5,28.35,NW,313,6.3,6.3,48,0.00,,---,0.00,VWS V14.01,2013-06-06 11:44:00,
2013-06-06 04:49:00,57.2,37.7,28.35,NW,313,6.3,6.3,48,0.00,,---,0.00,VWS V14.01,2013-06-06 11:49:00,
2013-06-06 04:55:00,56.8,37.4,28.35,NW,313,6.3,6.3,48,0.00,,---,0.00,VWS V14.01,2013-06-06 11:55:00,
2013-06-06 05:00:00,56.7,37.2,28.35,NW,313,6.3,6.3,48,0.00,,---,0.00,VWS V14.01,2013-06-06 12:00:00,
2013-06-06 05:05:00,56.7,37.7,28.35,NW,313,6.3,6.3,49,0.00,,---,0.00,VWS V14.01,2013-06-06 12:05:00,
2013-06-06 05:11:00,56.8,37.9,28.35,NW,313,6.3,6.3,49,0.00,,---,0.00,VWS V14.01,2013-06-06 12:11:00,
2013-06-06 05:16:00,56.8,38.4,28.35,NW,313,6.3,6.3,50,0.00,,---,0.00,VWS V14.01,2013-06-06 12:16:00,
2013-06-06 05:21:00,56.7,37.7,28.35,NW,313,6.3,6.3,49,0.00,,---,0.00,VWS V14.01,2013-06-06 12:21:00,
2013-06-06 05:26:00,56.5,37.6,28.35,NW,313,6.3,6.3,49,0.00,,---,0.00,VWS V14.01,2013-06-06 12:26:00,
2013-06-06 05:32:00,56.5,37.6,28.35,NW,313,6.3,6.3,49,0.00,,---,0.00,VWS V14.01,2013-06-06 12:32:00,
2013-06-06 05:37:00,56.7,38.2,28.35,NW,313,6.3,6.3,50,0.00,,---,0.00,VWS V14.01,2013-06-06 12:37:00,
2013-06-06 05:42:00,56.8,38.4,28.35,NW,313,6.3,6.3,50,0.00,,---,0.00,VWS V14.01,2013-06-06 12:42:00,
2013-06-06 05:47:00,56.8,38.4,28.35,NW,313,6.3,6.3,50,0.00,,---,0.00,VWS V14.01,2013-06-06 12:47:00,
2013-06-06 05:53:00,57.4,35.1,28.35,NW,313,6.3,6.3,43,0.00,,---,0.00,VWS V14.01,2013-06-06 12:53:00,
2013-06-06 05:58:00,57.4,35.1,28.35,NW,313,6.3,6.3,43,0.00,,---,0.00,VWS V14.01,2013-06-06 12:58:00,
2013-06-06 06:03:00,57.4,33.9,28.35,NW,313,6.3,6.3,41,0.00,,---,0.00,VWS V14.01,2013-06-06 13:03:00,
2013-06-06 06:09:00,57.4,33.9,28.35,NW,313,6.3,6.3,41,0.00,,---,0.00,VWS V14.01,2013-06-06 13:09:00,
2013-06-06 06:14:00,57.6,32.8,28.35,NW,313,6.3,6.3,39,0.00,,---,0.00,VWS V14.01,2013-06-06 13:14:00,
2013-06-06 06:19:00,57.9,31.8,28.35,NW,313,6.3,6.3,37,0.00,,---,0.00,VWS V14.01,2013-06-06 13:19:00,
2013-06-06 06:24:00,57.9,31.8,28.35,NW,313,6.3,6.3,37,0.00,,---,0.00,VWS V14.01,2013-06-06 13:24:00,
2013-06-06 06:30:00,57.9,31.8,28.35,NW,313,6.3,6.3,37,0.00,,---,0.00,VWS V14.01,2013-06-06 13:30:00,
2013-06-06 06:35:00,57.9,31.8,28.35,NW,313,6.3,6.3,37,0.00,,---,0.00,VWS V14.01,2013-06-06 13:35:00,
2013-06-06 06:40:00,59.0,33.5,28.35,NW,313,6.3,6.3,38,0.00,,---,0.00,VWS V14.01,2013-06-06 13:40:00,
2013-06-06 06:45:00,59.0,33.5,28.35,NW,313,6.3,6.3,38,0.00,,---,0.00,VWS V14.01,2013-06-06 13:45:00,
2013-06-06 06:51:00,59.7,32.7,28.35,NW,313,6.3,6.3,36,0.00,,---,0.00,VWS V14.01,2013-06-06 13:51:00,
2013-06-06 06:57:00,60.3,32.5,28.35,NW,313,6.3,6.3,35,0.00,,---,0.00,VWS V14.01,2013-06-06 13:57:00,
2013-06-06 07:02:00,60.8,32.3,28.35,NW,313,6.3,6.3,34,0.00,,---,0.00,VWS V14.01,2013-06-06 14:02:00,
2013-06-06 07:08:00,60.8,32.3,28.35,NW,313,6.3,6.3,34,0.00,,---,0.00,VWS V14.01,2013-06-06 14:08:00,
2013-06-06 07:13:00,60.8,32.3,28.35,NW,313,6.3,6.3,34,0.00,,---,0.00,VWS V14.01,2013-06-06 14:13:00,
2013-06-06 07:18:00,60.8,32.3,28.35,NW,313,6.3,6.3,34,0.00,,---,0.00,VWS V14.01,2013-06-06 14:18:00,
2013-06-06 07:24:00,63.1,32.0,28.35,NW,313,6.3,6.3,31,0.00,,---,0.00,VWS V14.01,2013-06-06 14:24:00,
2013-06-06 07:29:00,63.1,32.0,28.35,NW,313,6.3,6.3,31,0.00,,---,0.00,VWS V14.01,2013-06-06 14:29:00,
2013-06-06 07:34:00,63.9,33.5,28.35,NW,313,6.3,6.3,32,0.00,,---,0.00,VWS V14.01,2013-06-06 14:34:00,
2013-06-06 07:39:00,63.9,33.5,28.35,NW,313,6.3,6.3,32,0.00,,---,0.00,VWS V14.01,2013-06-06 14:39:00,
2013-06-06 07:45:00,63.9,33.5,28.35,NW,313,6.3,6.3,32,0.00,,---,0.00,VWS V14.01,2013-06-06 14:45:00,
2013-06-06 07:50:00,65.5,32.4,28.35,NW,313,6.3,6.3,29,0.00,,---,0.00,VWS V14.01,2013-06-06 14:50:00,
2013-06-06 07:55:00,66.0,32.0,28.35,NW,313,6.3,6.3,28,0.00,,---,0.00,VWS V14.01,2013-06-06 14:55:00,
2013-06-06 08:00:00,66.0,32.0,28.35,NW,313,6.3,6.3,28,0.00,,---,0.00,VWS V14.01,2013-06-06 15:00:00,
2013-06-06 08:05:00,66.0,32.0,28.35,NW,313,6.3,6.3,28,0.00,,---,0.00,VWS V14.01,2013-06-06 15:05:00,
2013-06-06 08:10:00,66.0,32.0,28.35,NW,313,6.3,6.3,28,0.00,,---,0.00,VWS V14.01,2013-06-06 15:10:00,
2013-06-06 08:16:00,68.2,32.0,28.35,NW,313,6.3,6.3,26,0.00,,---,0.00,VWS V14.01,2013-06-06 15:16:00,
2013-06-06 08:21:00,68.2,32.0,28.35,NW,313,6.3,6.3,26,0.00,,---,0.00,VWS V14.01,2013-06-06 15:21:00,
2013-06-06 08:26:00,68.2,32.0,28.35,NW,313,6.3,6.3,26,0.00,,---,0.00,VWS V14.01,2013-06-06 15:26:00,
2013-06-06 08:31:00,68.2,32.0,28.35,NW,313,6.3,6.3,26,0.00,,---,0.00,VWS V14.01,2013-06-06 15:31:00,
2013-06-06 08:37:00,68.4,30.2,28.35,NW,313,6.3,6.3,24,0.00,,---,0.00,VWS V14.01,2013-06-06 15:37:00,
2013-06-06 08:43:00,68.4,30.2,28.35,NW,313,6.3,6.3,24,0.00,,---,0.00,VWS V14.01,2013-06-06 15:43:00,
2013-06-06 08:48:00,68.4,30.2,28.35,NW,313,6.3,6.3,24,0.00,,---,0.00,VWS V14.01,2013-06-06 15:48:00,
2013-06-06 08:53:00,68.4,30.2,28.35,NW,313,6.3,6.3,24,0.00,,---,0.00,VWS V14.01,2013-06-06 15:53:00,
2013-06-06 08:59:00,69.1,30.8,28.38,NW,313,6.3,6.3,24,0.00,,---,0.00,VWS V14.01,2013-06-06 15:59:00,
2013-06-06 09:04:00,69.1,30.8,28.38,NW,313,6.3,6.3,24,0.00,,---,0.00,VWS V14.01,2013-06-06 16:04:00,
2013-06-06 09:09:00,69.1,30.8,28.38,NW,313,6.3,6.3,24,0.00,,---,0.00,VWS V14.01,2013-06-06 16:09:00,
2013-06-06 09:15:00,69.1,30.8,28.38,NW,313,6.3,6.3,24,0.00,,---,0.00,VWS V14.01,2013-06-06 16:15:00,
2013-06-06 09:20:00,69.1,30.8,28.38,NW,313,6.3,6.3,24,0.00,,---,0.00,VWS V14.01,2013-06-06 16:20:00,
2013-06-06 09:25:00,70.7,30.0,28.38,NW,313,6.3,6.3,22,0.00,,---,0.00,VWS V14.01,2013-06-06 16:25:00,
2013-06-06 09:31:00,70.7,30.0,28.38,NW,313,6.3,6.3,22,0.00,,---,0.00,VWS V14.01,2013-06-06 16:31:00,
2013-06-06 09:36:00,70.7,30.0,28.38,NW,313,6.3,6.3,22,0.00,,---,0.00,VWS V14.01,2013-06-06 16:36:00,
2013-06-06 09:42:00,70.7,30.0,28.38,NW,313,6.3,6.3,22,0.00,,---,0.00,VWS V14.01,2013-06-06 16:42:00,
2013-06-06 09:48:00,72.3,30.2,28.38,NW,313,6.3,6.3,21,0.00,,---,0.00,VWS V14.01,2013-06-06 16:48:00,
2013-06-06 09:53:00,72.3,30.2,28.38,NW,313,6.3,6.3,21,0.00,,---,0.00,VWS V14.01,2013-06-06 16:53:00,
2013-06-06 09:59:00,72.3,30.2,28.38,NW,313,6.3,6.3,21,0.00,,---,0.00,VWS V14.01,2013-06-06 16:59:00,
2013-06-06 10:04:00,72.3,30.2,28.38,NW,313,6.3,6.3,21,0.00,,---,0.00,VWS V14.01,2013-06-06 17:04:00,
2013-06-06 10:09:00,72.3,30.2,28.38,NW,313,6.3,6.3,21,0.00,,---,0.00,VWS V14.01,2013-06-06 17:09:00,
2013-06-06 10:14:00,72.5,30.4,28.38,NW,313,6.3,6.3,21,0.00,,---,0.00,VWS V14.01,2013-06-06 17:14:00,
2013-06-06 10:20:00,72.5,30.4,28.38,NW,313,6.3,6.3,21,0.00,,---,0.00,VWS V14.01,2013-06-06 17:20:00,
2013-06-06 10:25:00,72.5,30.4,28.38,NW,313,6.3,6.3,21,0.00,,---,0.00,VWS V14.01,2013-06-06 17:25:00,
2013-06-06 10:30:00,72.5,30.4,28.38,NW,313,6.3,6.3,21,0.00,,---,0.00,VWS V14.01,2013-06-06 17:30:00,
2013-06-06 10:35:00,72.9,31.8,28.38,NW,313,6.3,6.3,22,0.00,,---,0.00,VWS V14.01,2013-06-06 17:35:00,
2013-06-06 10:42:00,72.9,31.8,28.38,NW,313,6.3,6.3,22,0.00,,---,0.00,VWS V14.01,2013-06-06 17:42:00,
2013-06-06 10:47:00,73.6,31.3,28.38,NW,313,6.3,6.3,21,0.00,,---,0.00,VWS V14.01,2013-06-06 17:47:00,
2013-06-06 10:53:00,73.6,31.3,28.38,NW,313,6.3,6.3,21,0.00,,---,0.00,VWS V14.01,2013-06-06 17:53:00,
2013-06-06 10:58:00,75.0,28.7,28.38,NW,313,6.3,6.3,18,0.00,,---,0.00,VWS V14.01,2013-06-06 17:58:00,
2013-06-06 11:03:00,75.0,28.7,28.38,NW,313,6.3,6.3,18,0.00,,---,0.00,VWS V14.01,2013-06-06 18:03:00,
2013-06-06 11:09:00,75.0,28.7,28.38,NW,313,6.3,6.3,18,0.00,,---,0.00,VWS V14.01,2013-06-06 18:09:00,
2013-06-06 11:14:00,75.0,28.7,28.38,NW,313,6.3,6.3,18,0.00,,---,0.00,VWS V14.01,2013-06-06 18:14:00,
2013-06-06 11:20:00,76.6,25.6,28.38,NW,313,6.3,6.3,15,0.00,,---,0.00,VWS V14.01,2013-06-06 18:20:00,
2013-06-06 11:25:00,76.8,25.7,28.38,NW,313,6.3,6.3,15,0.00,,---,0.00,VWS V14.01,2013-06-06 18:25:00,
2013-06-06 11:30:00,76.8,25.7,28.38,NW,313,6.3,6.3,15,0.00,,---,0.00,VWS V14.01,2013-06-06 18:30:00,
2013-06-06 11:35:00,76.8,25.7,28.38,NW,313,6.3,6.3,15,0.00,,---,0.00,VWS V14.01,2013-06-06 18:35:00,
2013-06-06 11:41:00,76.8,25.7,28.38,NW,313,6.3,6.3,15,0.00,,---,0.00,VWS V14.01,2013-06-06 18:41:00,
2013-06-06 11:47:00,78.1,23.3,28.35,NW,313,6.3,6.3,13,0.00,,---,0.00,VWS V14.01,2013-06-06 18:47:00,
2013-06-06 11:52:00,78.1,23.3,28.35,NW,313,6.3,6.3,13,0.00,,---,0.00,VWS V14.01,2013-06-06 18:52:00,
2013-06-06 11:58:00,78.1,23.3,28.35,NW,313,6.3,6.3,13,0.00,,---,0.00,VWS V14.01,2013-06-06 18:58:00,
2013-06-06 12:03:00,78.3,23.4,28.35,NW,313,6.3,6.3,13,0.00,,---,0.00,VWS V14.01,2013-06-06 19:03:00,
2013-06-06 12:08:00,78.3,23.4,28.38,NW,313,6.3,6.3,13,0.00,,---,0.00,VWS V14.01,2013-06-06 19:08:00,
2013-06-06 12:14:00,78.3,23.4,28.38,NW,313,6.3,6.3,13,0.00,,---,0.00,VWS V14.01,2013-06-06 19:14:00,
2013-06-06 12:19:00,78.3,23.4,28.38,NW,313,6.3,6.3,13,0.00,,---,0.00,VWS V14.01,2013-06-06 19:19:00,
2013-06-06 12:24:00,78.3,23.4,28.38,NW,313,6.3,6.3,13,0.00,,---,0.00,VWS V14.01,2013-06-06 19:24:00,
2013-06-06 12:30:00,78.3,23.4,28.38,NW,313,6.3,6.3,13,0.00,,---,0.00,VWS V14.01,2013-06-06 19:30:00,
2013-06-06 12:34:00,77.2,22.6,28.38,NW,313,6.3,6.3,13,0.00,,---,0.00,VWS V14.01,2013-06-06 19:34:00,
2013-06-06 12:39:00,76.6,22.1,28.38,NW,313,6.3,6.3,13,0.00,,---,0.00,VWS V14.01,2013-06-06 19:39:00,
2013-06-06 12:45:00,76.6,22.1,28.38,NW,313,6.3,6.3,13,0.00,,---,0.00,VWS V14.01,2013-06-06 19:45:00,
2013-06-06 12:50:00,76.6,22.1,28.38,NW,313,6.3,6.3,13,0.00,,---,0.00,VWS V14.01,2013-06-06 19:50:00,
2013-06-06 12:55:00,78.1,17.1,28.38,NW,313,6.3,6.3,10,0.00,,---,0.00,VWS V14.01,2013-06-06 19:55:00,
2013-06-06 13:01:00,78.1,17.1,28.38,NW,313,6.3,6.3,10,0.00,,---,0.00,VWS V14.01,2013-06-06 20:01:00,
2013-06-06 13:06:00,78.1,17.1,28.38,NW,313,6.3,6.3,10,0.00,,---,0.00,VWS V14.01,2013-06-06 20:06:00,
2013-06-06 13:11:00,78.1,17.1,28.38,NW,313,6.3,6.3,10,0.00,,---,0.00,VWS V14.01,2013-06-06 20:11:00,
2013-06-06 13:17:00,77.9,17.0,28.38,NW,313,6.3,6.3,10,0.00,,---,0.00,VWS V14.01,2013-06-06 20:17:00,
2013-06-06 13:22:00,77.9,17.0,28.38,NW,313,6.3,6.3,10,0.00,,---,0.00,VWS V14.01,2013-06-06 20:22:00,
2013-06-06 13:27:00,77.9,17.0,28.38,NW,313,6.3,6.3,10,0.00,,---,0.00,VWS V14.01,2013-06-06 20:27:00,
2013-06-06 13:33:00,77.9,17.0,28.38,NW,313,6.3,6.3,10,0.00,,---,0.00,VWS V14.01,2013-06-06 20:33:00,
2013-06-06 13:38:00,77.9,17.0,28.38,NW,313,6.3,6.3,10,0.00,,---,0.00,VWS V14.01,2013-06-06 20:38:00,
2013-06-06 13:43:00,77.0,16.3,28.38,NW,313,6.3,6.3,10,0.00,,---,0.00,VWS V14.01,2013-06-06 20:43:00,
2013-06-06 13:49:00,77.0,16.3,28.38,NW,313,6.3,6.3,10,0.00,,---,0.00,VWS V14.01,2013-06-06 20:49:00,
2013-06-06 13:54:00,77.4,16.6,28.38,NW,313,6.3,6.3,10,0.00,,---,0.00,VWS V14.01,2013-06-06 20:54:00,
2013-06-06 13:59:00,77.4,16.6,28.38,NW,313,6.3,6.3,10,0.00,,---,0.00,VWS V14.01,2013-06-06 20:59:00,
2013-06-06 14:05:00,76.6,16.0,28.38,NW,313,6.3,6.3,10,0.00,,---,0.00,VWS V14.01,2013-06-06 21:05:00,
2013-06-06 14:10:00,76.6,16.0,28.38,NW,313,6.3,6.3,10,0.00,,---,0.00,VWS V14.01,2013-06-06 21:10:00,
2013-06-06 14:15:00,76.6,16.0,28.38,NW,313,6.3,6.3,10,0.00,,---,0.00,VWS V14.01,2013-06-06 21:15:00,
2013-06-06 14:20:00,76.6,16.0,28.38,NW,313,6.3,6.3,10,0.00,,---,0.00,VWS V14.01,2013-06-06 21:20:00,
2013-06-06 14:25:00,76.6,16.0,28.35,NW,313,6.3,6.3,10,0.00,,---,0.00,VWS V14.01,2013-06-06 21:25:00,
2013-06-06 14:30:00,77.7,16.9,28.35,NW,313,6.3,6.3,10,0.00,,---,0.00,VWS V14.01,2013-06-06 21:30:00,
2013-06-06 14:35:00,77.7,16.9,28.35,NW,313,6.3,6.3,10,0.00,,---,0.00,VWS V14.01,2013-06-06 21:35:00,
2013-06-06 14:41:00,77.7,16.9,28.35,NW,313,6.3,6.3,10,0.00,,---,0.00,VWS V14.01,2013-06-06 21:41:00,
2013-06-06 14:46:00,77.7,16.9,28.35,NW,313,6.3,6.3,10,0.00,,---,0.00,VWS V14.01,2013-06-06 21:46:00,
2013-06-06 14:51:00,77.7,16.9,28.35,NW,326,3.6,3.6,10,0.00,,---,0.00,VWS V14.01,2013-06-06 21:51:00,
2013-06-06 14:57:00,77.9,17.0,28.35,NW,326,3.6,3.6,10,0.00,,---,0.00,VWS V14.01,2013-06-06 21:57:00,
2013-06-06 15:02:00,77.9,17.0,28.35,NW,326,3.6,3.6,10,0.00,,---,0.00,VWS V14.01,2013-06-06 22:02:00,
2013-06-06 15:07:00,77.9,17.0,28.35,NW,326,3.6,3.6,10,0.00,,---,0.00,VWS V14.01,2013-06-06 22:07:00,
2013-06-06 15:13:00,77.9,17.0,28.35,NW,326,3.6,3.6,10,0.00,,---,0.00,VWS V14.01,2013-06-06 22:13:00,
2013-06-06 15:18:00,77.2,16.5,28.35,NW,326,3.6,3.6,10,0.00,,---,0.00,VWS V14.01,2013-06-06 22:18:00,
2013-06-06 15:23:00,77.2,16.5,28.35,North,0,0.0,3.6,10,0.00,,---,0.00,VWS V14.01,2013-06-06 22:23:00,
2013-06-06 15:29:00,77.5,16.7,28.35,North,0,0.0,0.0,10,0.00,,---,0.00,VWS V14.01,2013-06-06 22:29:00,
2013-06-06 15:34:00,77.7,16.9,28.35,North,0,0.0,0.0,10,0.00,,---,0.00,VWS V14.01,2013-06-06 22:34:00,
2013-06-06 15:39:00,78.1,17.1,28.35,North,0,0.0,0.0,10,0.00,,---,0.00,VWS V14.01,2013-06-06 22:39:00,
2013-06-06 15:45:00,78.1,17.1,28.35,North,0,0.0,0.0,10,0.00,,---,0.00,VWS V14.01,2013-06-06 22:45:00,
2013-06-06 15:50:00,78.1,17.1,28.35,West,281,2.2,2.2,10,0.00,,---,0.00,VWS V14.01,2013-06-06 22:50:00,
2013-06-06 15:55:00,78.3,17.3,28.35,West,281,2.2,2.2,10,0.00,,---,0.00,VWS V14.01,2013-06-06 22:55:00,
2013-06-06 16:00:00,77.5,16.7,28.35,West,281,2.2,2.2,10,0.00,,---,0.00,VWS V14.01,2013-06-06 23:00:00,
2013-06-06 16:05:00,77.5,16.7,28.35,West,281,2.2,2.2,10,0.00,,---,0.00,VWS V14.01,2013-06-06 23:05:00,
2013-06-06 16:10:00,77.5,16.7,28.35,North,353,5.4,5.4,10,0.00,,---,0.00,VWS V14.01,2013-06-06 23:10:00,
2013-06-06 16:15:00,77.5,16.7,28.35,North,353,5.4,5.4,10,0.00,,---,0.00,VWS V14.01,2013-06-06 23:15:00,
2013-06-06 16:20:00,77.5,16.7,28.35,North,353,5.4,5.4,10,0.00,,---,0.00,VWS V14.01,2013-06-06 23:20:00,
2013-06-06 16:26:00,77.5,16.7,28.35,North,353,5.4,5.4,10,0.00,,---,0.00,VWS V14.01,2013-06-06 23:26:00,
2013-06-06 16:32:00,77.5,16.7,28.35,NNW,340,4.0,4.0,10,0.00,,---,0.00,VWS V14.01,2013-06-06 23:32:00,
2013-06-06 16:38:00,77.5,16.7,28.35,NNW,339,2.7,4.0,10,0.00,,---,0.00,VWS V14.01,2013-06-06 23:38:00,
2013-06-06 16:43:00,77.5,16.7,28.35,WNW,301,4.0,4.0,10,0.00,,---,0.00,VWS V14.01,2013-06-06 23:43:00,
2013-06-06 16:48:00,77.5,16.7,28.35,WNW,301,4.0,4.0,10,0.00,,---,0.00,VWS V14.01,2013-06-06 23:48:00,
2013-06-06 16:54:00,77.5,16.7,28.35,West,279,0.0,0.0,10,0.00,,---,0.00,VWS V14.01,2013-06-06 23:54:00,
2013-06-06 16:59:00,77.5,16.7,28.35,West,279,0.0,0.0,10,0.00,,---,0.00,VWS V14.01,2013-06-06 23:59:00,
2013-06-06 17:04:00,77.5,16.7,28.35,West,279,0.0,0.0,10,0.00,,---,0.00,VWS V14.01,2013-06-07 00:04:00,
2013-06-06 17:09:00,77.5,16.7,28.35,North,8,3.6,3.6,10,0.00,,---,0.00,VWS V14.01,2013-06-07 00:09:00,
2013-06-06 17:15:00,77.5,16.7,28.35,North,4,3.1,3.6,10,0.00,,---,0.00,VWS V14.01,2013-06-07 00:15:00,
2013-06-06 17:20:00,77.5,16.7,28.35,North,4,3.1,3.1,10,0.00,,---,0.00,VWS V14.01,2013-06-07 00:20:00,
2013-06-06 17:25:00,76.6,16.0,28.35,North,4,3.1,3.1,10,0.00,,---,0.00,VWS V14.01,2013-06-07 00:25:00,
2013-06-06 17:30:00,76.6,16.0,28.35,NNW,330,8.3,8.3,10,0.00,,---,0.00,VWS V14.01,2013-06-07 00:30:00,
2013-06-06 17:35:00,76.1,15.6,28.35,NNW,330,8.3,8.3,10,0.00,,---,0.00,VWS V14.01,2013-06-07 00:35:00,
2013-06-06 17:40:00,76.1,15.6,28.35,NNW,330,8.3,8.3,10,0.00,,---,0.00,VWS V14.01,2013-06-07 00:40:00,
2013-06-06 17:45:00,76.1,15.6,28.35,NNW,330,8.3,8.3,10,0.00,,---,0.00,VWS V14.01,2013-06-07 00:45:00,
2013-06-06 17:51:00,76.1,15.6,28.35,NNW,330,8.3,8.3,10,0.00,,---,0.00,VWS V14.01,2013-06-07 00:51:00,
2013-06-06 17:56:00,76.1,15.6,28.35,NNW,330,8.3,8.3,10,0.00,,---,0.00,VWS V14.01,2013-06-07 00:56:00,
2013-06-06 18:01:00,74.7,9.5,28.35,NNW,330,8.3,8.3,8,0.00,,---,0.00,VWS V14.01,2013-06-07 01:01:00,
2013-06-06 18:07:00,74.7,9.5,28.35,NNW,330,8.3,8.3,8,0.00,,---,0.00,VWS V14.01,2013-06-07 01:07:00,
2013-06-06 18:12:00,74.5,9.4,28.35,North,6,4.0,4.0,8,0.00,,---,0.00,VWS V14.01,2013-06-07 01:12:00,
2013-06-06 18:17:00,74.5,9.4,28.35,North,6,4.0,4.0,8,0.00,,---,0.00,VWS V14.01,2013-06-07 01:17:00,
2013-06-06 18:23:00,73.9,16.1,28.35,North,6,4.0,4.0,11,0.00,,---,0.00,VWS V14.01,2013-06-07 01:23:00,
2013-06-06 18:28:00,73.9,16.1,28.35,North,6,4.0,4.0,11,0.00,,---,0.00,VWS V14.01,2013-06-07 01:28:00,
2013-06-06 18:33:00,73.9,16.1,28.35,North,6,4.0,4.0,11,0.00,,---,0.00,VWS V14.01,2013-06-07 01:33:00,
2013-06-06 18:39:00,73.8,16.0,28.35,North,6,4.0,4.0,11,0.00,,---,0.00,VWS V14.01,2013-06-07 01:39:00,
2013-06-06 18:44:00,73.8,16.0,28.35,North,6,4.0,4.0,11,0.00,,---,0.00,VWS V14.01,2013-06-07 01:44:00,
2013-06-06 18:50:00,73.8,16.0,28.35,North,6,4.0,4.0,11,0.00,,---,0.00,VWS V14.01,2013-06-07 01:50:00,
2013-06-06 18:55:00,73.8,16.0,28.35,North,6,4.0,4.0,11,0.00,,---,0.00,VWS V14.01,2013-06-07 01:55:00,
2013-06-06 19:00:00,73.8,16.0,28.35,North,6,4.0,4.0,11,0.00,,---,0.00,VWS V14.01,2013-06-07 02:00:00,
2013-06-06 19:06:00,73.8,16.0,28.35,North,6,4.0,4.0,11,0.00,,---,0.00,VWS V14.01,2013-06-07 02:06:00,
2013-06-06 19:12:00,73.8,16.0,28.35,North,6,4.0,4.0,11,0.00,,---,0.00,VWS V14.01,2013-06-07 02:12:00,
2013-06-06 19:17:00,73.2,15.6,28.35,North,353,2.7,2.7,11,0.00,,---,0.00,VWS V14.01,2013-06-07 02:17:00,
2013-06-06 19:22:00,72.5,15.0,28.35,North,353,2.7,2.7,11,0.00,,---,0.00,VWS V14.01,2013-06-07 02:22:00,
2013-06-06 19:28:00,72.5,15.0,28.35,North,353,2.7,2.7,11,0.00,,---,0.00,VWS V14.01,2013-06-07 02:28:00,
2013-06-06 19:33:00,72.1,14.8,28.35,North,353,2.7,2.7,11,0.00,,---,0.00,VWS V14.01,2013-06-07 02:33:00,
2013-06-06 19:38:00,72.1,14.8,28.35,North,353,2.7,2.7,11,0.00,,---,0.00,VWS V14.01,2013-06-07 02:38:00,
2013-06-06 19:44:00,72.1,14.8,28.35,North,353,2.7,2.7,11,0.00,,---,0.00,VWS V14.01,2013-06-07 02:44:00,
2013-06-06 19:49:00,72.1,14.8,28.35,North,353,2.7,2.7,11,0.00,,---,0.00,VWS V14.01,2013-06-07 02:49:00,
2013-06-06 19:54:00,71.4,16.2,28.35,North,353,2.7,2.7,12,0.00,,---,0.00,VWS V14.01,2013-06-07 02:54:00,
2013-06-06 20:00:00,71.2,16.1,28.35,North,353,2.7,2.7,12,0.00,,---,0.00,VWS V14.01,2013-06-07 03:00:00,
2013-06-06 20:05:00,71.2,16.1,28.35,North,353,2.7,2.7,12,0.00,,---,0.00,VWS V14.01,2013-06-07 03:05:00,
2013-06-06 20:10:00,70.9,23.9,28.35,North,353,2.7,2.7,17,0.00,,---,0.00,VWS V14.01,2013-06-07 03:10:00,
2013-06-06 20:15:00,70.9,23.9,28.35,North,353,2.7,2.7,17,0.00,,---,0.00,VWS V14.01,2013-06-07 03:15:00,
2013-06-06 20:21:00,70.3,29.7,28.35,North,353,2.7,2.7,22,0.00,,---,0.00,VWS V14.01,2013-06-07 03:21:00,
2013-06-06 20:26:00,70.3,29.7,28.35,North,353,2.7,2.7,22,0.00,,---,0.00,VWS V14.01,2013-06-07 03:26:00,
2013-06-06 20:31:00,69.4,30.1,28.35,North,353,2.7,2.7,23,0.00,,---,0.00,VWS V14.01,2013-06-07 03:31:00,
2013-06-06 20:37:00,68.9,30.6,28.35,North,353,2.7,2.7,24,0.00,,---,0.00,VWS V14.01,2013-06-07 03:37:00,
2013-06-06 20:42:00,68.2,32.0,28.35,North,353,2.7,2.7,26,0.00,,---,0.00,VWS V14.01,2013-06-07 03:42:00,
2013-06-06 20:47:00,67.8,32.7,28.35,North,353,2.7,2.7,27,0.00,,---,0.00,VWS V14.01,2013-06-07 03:47:00,
2013-06-06 20:52:00,67.8,32.7,28.35,North,353,2.7,2.7,27,0.00,,---,0.00,VWS V14.01,2013-06-07 03:52:00,
2013-06-06 20:58:00,67.8,32.7,28.35,North,353,2.7,2.7,27,0.00,,---,0.00,VWS V14.01,2013-06-07 03:58:00,
2013-06-06 21:01:00,67.8,32.7,28.35,North,353,2.7,2.7,27,0.00,,---,0.00,VWS V14.01,2013-06-07 04:01:00,
2013-06-06 21:02:00,67.8,32.7,28.35,North,353,2.7,2.7,27,0.00,,---,0.00,VWS V14.01,2013-06-07 04:02:00,
2013-06-06 21:05:00,66.4,33.2,28.35,North,353,2.7,2.7,29,0.00,,---,0.00,VWS V14.01,2013-06-07 04:05:00,
2013-06-06 21:06:00,66.4,33.2,28.35,North,353,2.7,2.7,29,0.00,,---,0.00,VWS V14.01,2013-06-07 04:06:00,
2013-06-06 21:07:00,66.4,33.2,28.35,North,353,2.7,2.7,29,0.00,,---,0.00,VWS V14.01,2013-06-07 04:07:00,
2013-06-06 21:13:00,66.4,33.2,28.35,North,353,2.7,2.7,29,0.00,,---,0.00,VWS V14.01,2013-06-07 04:13:00,
2013-06-06 21:18:00,66.4,33.2,28.35,North,353,2.7,2.7,29,0.00,,---,0.00,VWS V14.01,2013-06-07 04:18:00,
2013-06-06 21:23:00,66.4,33.2,28.35,North,353,2.7,2.7,29,0.00,,---,0.00,VWS V14.01,2013-06-07 04:23:00,
2013-06-06 21:29:00,65.5,34.9,28.35,North,353,2.7,2.7,32,0.00,,---,0.00,VWS V14.01,2013-06-07 04:29:00,
2013-06-06 21:34:00,65.5,34.9,28.35,North,353,2.7,2.7,32,0.00,,---,0.00,VWS V14.01,2013-06-07 04:34:00,
2013-06-06 21:39:00,65.5,34.9,28.35,North,353,2.7,2.7,32,0.00,,---,0.00,VWS V14.01,2013-06-07 04:39:00,
2013-06-06 21:45:00,65.5,34.9,28.35,North,353,2.7,2.7,32,0.00,,---,0.00,VWS V14.01,2013-06-07 04:45:00,
2013-06-06 21:50:00,65.5,34.9,28.35,North,353,2.7,2.7,32,0.00,,---,0.00,VWS V14.01,2013-06-07 04:50:00,
2013-06-06 21:55:00,63.5,36.1,28.35,North,353,2.7,2.7,36,0.00,,---,0.00,VWS V14.01,2013-06-07 04:55:00,
2013-06-06 22:01:00,63.5,36.1,28.35,North,353,2.7,2.7,36,0.00,,---,0.00,VWS V14.01,2013-06-07 05:01:00,
2013-06-06 22:06:00,63.5,36.1,28.35,North,353,2.7,2.7,36,0.00,,---,0.00,VWS V14.01,2013-06-07 05:06:00,
2013-06-06 22:11:00,63.5,36.1,28.35,North,353,2.7,2.7,36,0.00,,---,0.00,VWS V14.01,2013-06-07 05:11:00,
2013-06-06 22:17:00,62.1,36.8,28.38,North,353,2.7,2.7,39,0.00,,---,0.00,VWS V14.01,2013-06-07 05:17:00,
2013-06-06 22:22:00,62.1,36.8,28.38,North,353,2.7,2.7,39,0.00,,---,0.00,VWS V14.01,2013-06-07 05:22:00,
2013-06-06 22:27:00,62.1,36.8,28.38,North,353,2.7,2.7,39,0.00,,---,0.00,VWS V14.01,2013-06-07 05:27:00,
2013-06-06 22:33:00,62.1,36.8,28.38,North,353,2.7,2.7,39,0.00,,---,0.00,VWS V14.01,2013-06-07 05:33:00,
2013-06-06 22:38:00,61.2,36.0,28.38,North,353,2.7,2.7,39,0.00,,---,0.00,VWS V14.01,2013-06-07 05:38:00,
2013-06-06 22:43:00,61.2,36.0,28.38,North,353,2.7,2.7,39,0.00,,---,0.00,VWS V14.01,2013-06-07 05:43:00,
2013-06-06 22:48:00,61.2,36.0,28.38,North,353,2.7,2.7,39,0.00,,---,0.00,VWS V14.01,2013-06-07 05:48:00,
2013-06-06 22:54:00,61.2,36.0,28.38,North,353,2.7,2.7,39,0.00,,---,0.00,VWS V14.01,2013-06-07 05:54:00,
2013-06-06 22:59:00,61.2,36.0,28.38,North,353,2.7,2.7,39,0.00,,---,0.00,VWS V14.01,2013-06-07 05:59:00,
2013-06-06 23:04:00,61.3,34.9,28.38,North,353,2.7,2.7,37,0.00,,---,0.00,VWS V14.01,2013-06-07 06:04:00,
2013-06-06 23:10:00,61.3,34.9,28.38,North,353,2.7,2.7,37,0.00,,---,0.00,VWS V14.01,2013-06-07 06:10:00,
2013-06-06 23:15:00,61.3,34.9,28.38,North,353,2.7,2.7,37,0.00,,---,0.00,VWS V14.01,2013-06-07 06:15:00,
2013-06-06 23:20:00,61.3,34.9,28.38,North,353,2.7,2.7,37,0.00,,---,0.00,VWS V14.01,2013-06-07 06:20:00,
2013-06-06 23:25:00,62.8,31.7,28.38,North,353,2.7,2.7,31,0.00,,---,0.00,VWS V14.01,2013-06-07 06:25:00,
2013-06-06 23:32:00,62.8,31.7,28.38,North,353,2.7,2.7,31,0.00,,---,0.00,VWS V14.01,2013-06-07 06:32:00,
2013-06-06 23:37:00,62.8,31.7,28.38,North,353,2.7,2.7,31,0.00,,---,0.00,VWS V14.01,2013-06-07 06:37:00,
2013-06-06 23:43:00,62.8,31.7,28.38,North,353,2.7,2.7,31,0.00,,---,0.00,VWS V14.01,2013-06-07 06:43:00,
2013-06-06 23:48:00,62.8,31.7,28.38,North,353,2.7,2.7,31,0.00,,---,0.00,VWS V14.01,2013-06-07 06:48:00,
2013-06-06 23:53:00,59.9,34.2,28.38,North,353,2.7,2.7,38,0.00,,---,0.00,VWS V14.01,2013-06-07 06:53:00,
2013-06-06 23:59:00,59.9,34.2,28.38,North,353,2.7,2.7,38,0.00,,---,0.00,VWS V14.01,2013-06-07 06:59:00,